K5VP Weather Reports


time (UTC)temp
C
wind
direction
speed
KPH
gust
KPH
rain 1hr
cm
rain 24hr
cm
rain mn
cm
humidity
%
barometer
mb
20260510192349 27 307 0.0 0.0 0.00 0.00 0.00 43 1017.0
20260510191731 27 246 0.0 0.0 0.00 0.00 0.00 49 1017.0
20260510191059 27 203 0.0 0.0 0.00 0.00 0.00 47 1017.0
20260510190446 27 278 0.0 0.0 0.00 0.00 0.00 44 1017.0
20260510185834 27 235 0.0 1.6 0.00 0.00 0.00 46 1017.1
20260510185201 27 240 0.0 0.0 0.00 0.00 0.00 45 1017.1
20260510184548 27 254 0.0 0.0 0.00 0.00 0.00 46 1017.1
20260510183923 27 203 0.0 0.0 0.00 0.00 0.00 47 1017.0
20260510183302 27 195 0.0 4.8 0.00 0.00 0.00 45 1017.0
20260510182638 27 15 0.0 4.8 0.00 0.00 0.00 44 1017.0
20260510182003 27 92 0.0 0.0 0.00 0.00 0.00 45 1017.0
20260510181330 27 205 0.0 0.0 0.00 0.00 0.00 44 1017.0
20260510180713 27 164 0.0 0.0 0.00 0.00 0.00 49 1017.1
20260510180044 27 277 0.0 0.0 0.00 0.00 0.00 46 1017.1
20260510175432 27 166 0.0 3.2 0.00 0.00 0.00 46 1017.3
20260510174756 27 215 0.0 3.2 0.00 0.00 0.00 45 1017.3
20260510174136 27 168 0.0 4.8 0.00 0.00 0.00 45 1017.5
20260510173525 27 238 0.0 4.8 0.00 0.00 0.00 46 1017.5
20260510172918 27 160 0.0 0.0 0.00 0.00 0.00 45 1017.5
20260510172258 27 10 0.0 0.0 0.00 0.00 0.00 47 1017.6
20260510171646 27 293 0.0 4.8 0.00 0.00 0.00 45 1017.6
20260510171130 27 247 0.0 0.0 0.00 0.00 0.00 47 1017.7
20260510170619 27 186 0.0 0.0 0.00 0.00 0.00 46 1017.6
20260510170109 27 284 0.0 3.2 0.00 0.00 0.00 48 1017.6
20260510165557 27 116 0.0 3.2 0.00 0.00 0.00 48 1017.7
20260510165037 27 174 0.0 0.0 0.00 0.00 0.00 50 1017.7
20260510164525 26 281 0.0 1.6 0.00 0.00 0.00 49 1017.7
20260510164017 26 15 0.0 4.8 0.00 0.00 0.00 49 1017.8
20260510163459 26 253 0.0 0.0 0.00 0.00 0.00 52 1017.8
20260510163000 26 92 0.0 1.6 0.00 0.00 0.00 49 1017.8
20260510162507 26 244 0.0 6.4 0.00 0.00 0.00 49 1017.8
20260510162003 26 210 0.0 3.2 0.00 0.00 0.00 50 1017.8
20260510161455 26 295 0.0 6.4 0.00 0.00 0.00 53 1017.8
20260510160937 26 247 0.0 0.0 0.00 0.00 0.00 52 1017.8
20260510160441 26 221 0.0 0.0 0.00 0.00 0.00 55 1017.8
20260510155946 26 234 0.0 0.0 0.00 0.00 0.00 53 1017.8
20260510155443 26 269 0.0 1.6 0.00 0.00 0.00 51 1017.7
20260510154935 26 178 0.0 0.0 0.00 0.00 0.00 55 1017.5
20260510154421 26 191 0.0 0.0 0.00 0.00 0.00 57 1017.5
20260510153908 25 142 0.0 0.0 0.00 0.00 0.00 58 1017.5
20260510153401 25 141 0.0 0.0 0.00 0.00 0.00 57 1017.5
20260510152848 25 99 0.0 0.0 0.00 0.00 0.00 61 1017.5
20260510152342 24 190 0.0 0.0 0.00 0.00 0.00 61 1017.5
20260510151823 24 178 0.0 0.0 0.00 0.00 0.00 61 1017.5
20260510151310 23 194 0.0 0.0 0.00 0.00 0.00 63 1017.5
20260510150753 23 212 0.0 0.0 0.00 0.00 0.00 65 1017.4
20260510150246 23 209 0.0 0.0 0.00 0.00 0.00 66 1017.3
20260510145729 22 208 0.0 0.0 0.00 0.00 0.00 69 1017.3
20260510145214 22 210 0.0 0.0 0.00 0.00 0.00 68 1017.3
20260510144657 21 218 0.0 0.0 0.00 0.00 0.00 70 1017.4
20260510144152 21 221 0.0 0.0 0.00 0.00 0.00 71 1017.3
20260510143630 21 210 0.0 0.0 0.00 0.00 0.00 71 1017.3
20260510143134 21 240 0.0 0.0 0.00 0.00 0.00 73 1017.3
20260510142617 20 240 0.0 0.0 0.00 0.00 0.00 74 1017.4
20260510142115 20 240 0.0 0.0 0.00 0.00 0.00 74 1017.3
20260510141558 20 136 0.0 0.0 0.00 0.00 0.00 74 1017.3
20260510141102 20 134 0.0 0.0 0.00 0.00 0.00 77 1017.2
20260510140608 19 134 0.0 0.0 0.00 0.00 0.00 78 1017.2
20260510140113 18 231 0.0 0.0 0.00 0.00 0.00 79 1017.3
20260510135559 18 201 0.0 0.0 0.00 0.00 0.00 80 1017.4
20260510135046 18 201 0.0 0.0 0.00 0.00 0.00 80 1017.4
20260510134533 18 201 0.0 0.0 0.00 0.00 0.00 80 1017.4
20260510134027 17 201 0.0 0.0 0.00 0.00 0.00 81 1017.5
20260510133527 17 201 0.0 0.0 0.00 0.00 0.00 80 1017.5
20260510133027 17 162 0.0 0.0 0.00 0.00 0.00 79 1017.5
20260510132532 17 75 0.0 0.0 0.00 0.00 0.00 80 1017.5
20260510132023 17 75 0.0 0.0 0.00 0.00 0.00 81 1017.5
20260510131529 17 75 0.0 0.0 0.00 0.00 0.00 83 1017.4
20260510131030 16 75 0.0 0.0 0.00 0.00 0.00 84 1017.4
20260510130526 15 75 0.0 0.0 0.00 0.00 0.00 87 1017.4
20260510130024 15 75 0.0 0.0 0.00 0.00 0.00 88 1017.4
20260510125504 14 75 0.0 0.0 0.00 0.00 0.00 89 1017.3
20260510124952 13 75 0.0 0.0 0.00 0.00 0.00 89 1017.2
20260510124451 13 75 0.0 0.0 0.00 0.00 0.00 90 1017.1
20260510123935 13 75 0.0 0.0 0.00 0.00 0.00 91 1017.1
20260510123431 13 74 0.0 0.0 0.00 0.00 0.00 91 1017.1
20260510122926 13 74 0.0 0.0 0.00 0.00 0.00 91 1017.1
20260510122419 13 74 0.0 0.0 0.00 0.00 0.00 92 1017.0
20260510121915 12 74 0.0 0.0 0.00 0.00 0.00 93 1017.0
20260510121418 12 74 0.0 0.0 0.00 0.00 0.00 93 1016.9
20260510120901 12 73 0.0 0.0 0.00 0.00 0.00 93 1016.9
20260510120408 12 73 0.0 0.0 0.00 0.00 0.00 93 1016.8
20260510115904 12 72 0.0 0.0 0.00 0.00 0.00 94 1016.7
20260510115348 11 72 0.0 0.0 0.00 0.00 0.00 94 1016.6
20260510114839 11 72 0.0 0.0 0.00 0.00 0.00 94 1016.7
20260510114335 11 72 0.0 0.0 0.00 0.00 0.00 94 1016.5
20260510113824 11 72 0.0 0.0 0.00 0.00 0.00 94 1016.4
20260510113326 11 72 0.0 0.0 0.00 0.00 0.00 94 1016.3
20260510112834 11 72 0.0 0.0 0.00 0.00 0.00 94 1016.4
20260510112326 11 117 0.0 0.0 0.00 0.00 0.00 94 1016.2
20260510111816 11 117 0.0 0.0 0.00 0.00 0.00 94 1016.3
20260510041545 14 89 0.0 0.0 0.00 0.00 0.00 84 1013.5
20260510041038 14 89 0.0 0.0 0.00 0.00 0.00 84 1013.5
20260510040541 14 89 0.0 0.0 0.00 0.00 0.00 84 1013.6
20260510040030 14 89 0.0 0.0 0.00 0.00 0.00 83 1013.6
20260510035536 15 89 0.0 0.0 0.00 0.00 0.00 82 1013.6
20260510035017 15 89 0.0 0.0 0.00 0.00 0.00 81 1013.6
20260510034508 15 89 0.0 0.0 0.00 0.00 0.00 81 1013.6
20260510034008 15 89 0.0 0.0 0.00 0.00 0.00 81 1013.6
20260510033505 15 89 0.0 0.0 0.00 0.00 0.00 79 1013.7
20260510032956 16 89 0.0 0.0 0.00 0.00 0.00 76 1013.6
20260510032449 16 89 0.0 0.0 0.00 0.00 0.00 75 1013.7
20260510031941 16 89 0.0 0.0 0.00 0.00 0.00 74 1013.6
20260510031425 16 89 0.0 0.0 0.00 0.00 0.00 73 1013.6
20260510030930 16 89 0.0 0.0 0.00 0.00 0.00 72 1013.7
20260510030436 16 89 0.0 0.0 0.00 0.00 0.00 72 1013.6
20260510025925 16 89 0.0 0.0 0.00 0.00 0.00 73 1013.6
20260510025423 16 89 0.0 0.0 0.00 0.00 0.00 72 1013.6
20260510024926 16 89 0.0 0.0 0.00 0.00 0.00 72 1013.5
20260510024407 16 89 0.0 0.0 0.00 0.00 0.00 72 1013.5
20260510023845 16 89 0.0 0.0 0.00 0.00 0.00 72 1013.5
20260510023338 17 89 0.0 0.0 0.00 0.00 0.00 71 1013.3
20260510022818 17 89 0.0 0.0 0.00 0.00 0.00 71 1013.3
20260510022306 17 89 0.0 0.0 0.00 0.00 0.00 70 1013.2
20260510021801 17 89 0.0 0.0 0.00 0.00 0.00 70 1013.2
20260510021258 17 89 0.0 0.0 0.00 0.00 0.00 69 1013.1
20260510020738 17 89 0.0 0.0 0.00 0.00 0.00 69 1013.1
20260510020244 17 89 0.0 0.0 0.00 0.00 0.00 68 1013.0
20260510015723 17 89 0.0 0.0 0.00 0.00 0.00 67 1012.9
20260510015205 17 89 0.0 0.0 0.00 0.00 0.00 67 1012.8
20260510014704 17 89 0.0 0.0 0.00 0.00 0.00 67 1012.7
20260510014210 18 89 0.0 0.0 0.00 0.00 0.00 66 1012.7
20260510013649 18 89 0.0 0.0 0.00 0.00 0.00 65 1012.5
20260510013131 18 89 0.0 0.0 0.00 0.00 0.00 65 1012.4
20260510012623 18 89 0.0 0.0 0.00 0.00 0.00 63 1012.4
20260510012112 18 89 0.0 0.0 0.00 0.00 0.00 63 1012.3
20260510011556 18 89 0.0 0.0 0.00 0.00 0.00 63 1012.2
20260510011044 19 89 0.0 0.0 0.00 0.00 0.00 61 1012.2
20260510010549 19 89 0.0 0.0 0.00 0.00 0.00 61 1012.2
20260510010042 19 89 0.0 0.0 0.00 0.00 0.00 61 1012.1
20260510005548 20 89 0.0 0.0 0.00 0.00 0.00 60 1012.1
20260510005039 20 89 0.0 0.0 0.00 0.00 0.00 58 1012.0
20260510004523 20 89 0.0 0.0 0.00 0.00 0.00 58 1012.0
20260510004010 20 89 0.0 0.0 0.00 0.00 0.00 56 1012.0
20260510003502 21 89 0.0 0.0 0.00 0.00 0.00 55 1011.9
20260510002948 21 89 0.0 0.0 0.00 0.00 0.00 55 1011.8
20260510002438 21 89 0.0 0.0 0.00 0.00 0.00 53 1011.8
20260510001920 22 88 0.0 0.0 0.00 0.00 0.00 52 1011.7
20260510001409 22 88 0.0 0.0 0.00 0.00 0.00 52 1011.7
20260510000913 22 88 0.0 0.0 0.00 0.00 0.00 50 1011.6
20260510000413 23 88 0.0 0.0 0.00 0.00 0.00 48 1011.6
20260509235903 23 88 0.0 0.0 0.00 0.00 0.00 48 1011.5
20260509235343 24 88 0.0 0.0 0.00 0.00 0.00 46 1011.5
20260509234851 25 88 0.0 0.0 0.00 0.00 0.00 44 1011.5
20260509234350 25 88 0.0 0.0 0.00 0.00 0.00 44 1011.4
20260509233833 26 88 0.0 0.0 0.00 0.00 0.00 41 1011.3
20260509233340 27 88 0.0 0.0 0.00 0.00 0.00 40 1011.3
20260509232837 27 88 0.0 0.0 0.00 0.00 0.00 41 1011.3
20260509232341 27 88 0.0 0.0 0.00 0.00 0.00 40 1011.4
20260509231847 27 87 0.0 0.0 0.00 0.00 0.00 41 1011.4
20260509231351 27 86 0.0 0.0 0.00 0.00 0.00 41 1011.4
20260509230833 26 86 0.0 0.0 0.00 0.00 0.00 42 1011.4
20260509230321 26 86 0.0 0.0 0.00 0.00 0.00 42 1011.4
20260509225815 26 86 0.0 0.0 0.00 0.00 0.00 40 1011.4
20260509225315 26 86 0.0 0.0 0.00 0.00 0.00 37 1011.3
20260509224803 27 86 0.0 0.0 0.00 0.00 0.00 35 1011.3
20260509224307 27 86 0.0 0.0 0.00 0.00 0.00 35 1011.3
20260509223750 28 86 0.0 0.0 0.00 0.00 0.00 34 1011.3
20260509223246 28 84 0.0 0.0 0.00 0.00 0.00 36 1011.3
20260509222725 28 84 0.0 0.0 0.00 0.00 0.00 34 1011.3
20260509222205 27 84 0.0 0.0 0.00 0.00 0.00 35 1011.3
20260509221701 27 84 0.0 0.0 0.00 0.00 0.00 37 1011.3
20260509221202 27 99 0.0 0.0 0.00 0.00 0.00 36 1011.3
20260509220649 27 84 0.0 1.6 0.00 0.00 0.00 37 1011.3
20260509220127 27 86 0.0 0.0 0.00 0.00 0.00 36 1011.3
20260509215631 27 43 0.0 0.0 0.00 0.00 0.00 36 1011.2
20260509215112 27 73 0.0 0.0 0.00 0.00 0.00 33 1011.2
20260509214609 27 214 0.0 0.0 0.00 0.00 0.00 33 1011.3
20260509214058 27 53 0.0 0.0 0.00 0.00 0.00 37 1011.2
20260509213537 27 56 0.0 0.0 0.00 0.00 0.00 37 1011.1
20260509213038 27 127 0.0 0.0 0.00 0.00 0.00 36 1011.1
20260509212531 27 87 0.0 0.0 0.00 0.00 0.00 39 1011.1
20260509212023 27 143 0.0 1.6 0.00 0.00 0.00 36 1011.0
20260509211523 27 40 0.0 0.0 0.00 0.00 0.00 38 1010.9
20260509211003 27 269 0.0 1.6 0.00 0.00 0.00 35 1011.0
20260509210505 27 206 0.0 1.6 0.00 0.00 0.00 34 1010.9
20260509205954 27 23 0.0 0.0 0.00 0.00 0.00 38 1011.1
20260509205452 27 244 0.0 4.8 0.00 0.00 0.00 37 1011.1
20260509204941 27 206 0.0 0.0 0.00 0.00 0.00 38 1011.0
20260509204447 27 206 0.0 0.0 0.00 0.00 0.00 37 1011.1
20260509203939 27 206 0.0 0.0 0.00 0.00 0.00 39 1011.1
20260509203428 27 205 0.0 0.0 0.00 0.00 0.00 38 1011.0
20260509202929 27 245 0.0 0.0 0.00 0.00 0.00 38 1011.1
20260509202424 27 141 0.0 0.0 0.00 0.00 0.00 42 1011.1
20260509201930 27 264 0.0 0.0 0.00 0.00 0.00 41 1011.1
20260509201418 27 69 0.0 4.8 0.00 0.00 0.00 37 1011.2
20260509200907 27 150 0.0 1.6 0.00 0.00 0.00 41 1011.3
20260509200413 26 103 0.0 1.6 0.00 0.00 0.00 42 1011.3
20260509195858 26 24 0.0 3.2 0.00 0.00 0.00 43 1011.4
20260509195339 26 101 0.0 0.0 0.00 0.00 0.00 44 1011.4
20260509194844 26 101 0.0 1.6 0.00 0.00 0.00 47 1011.4
20260509194329 26 94 0.0 3.2 0.00 0.00 0.00 44 1011.4
20260509193821 26 82 0.0 1.6 0.00 0.00 0.00 44 1011.5
20260509193329 26 9 0.0 0.0 0.00 0.00 0.00 43 1011.6